Regional Weather Roundup
Issued by NWS Portland, ME

Current Version | Previous Version | Text Only | Print | Product List | Glossary Off
Versions: 1 2 3 4 5 6 7 8 9 10 11 12 13 14 15 16 17 18 19 20 21 22 23 24 25 26 27 28 29 30 31 32 33 34 35 36 37 38 39 40 41 42 43 44 45 46 47 48 49 50
000 ASUS41 KGYX 231510 RWRGYX WEATHER ROUNDUP FOR MAINE AND NEW HAMPSHIRE NATIONAL WEATHER SERVICE GRAY ME 1100 AM EDT SUN JUL 23 2017 MEZ002-005-006-010-012-015-018-020-021-024-026-027-029-231600- MAINE CITY SKY/WX TMP DP RH WIND PRES REMARKS PORTLAND CLOUDY 69 41 36 SE7 29.90R SANFORD N/A 69 43 38 E7 29.91R BAR HARBOR SUNNY 67 41 38 NE7 29.88S WISCASSET SUNNY 71 42 35 E6 29.90S ROCKLAND SUNNY 68 43 40 N8 29.89S FRYEBURG SUNNY 69 49 48 CALM 29.91S LEWISTONAUBURN SUNNY 68 46 45 VRB6 29.91S AUGUSTA SUNNY 68 40 35 VRB7 29.90S WATERVILLE SUNNY 67 42 40 NW6 29.88S BANGOR CLOUDY 68 41 37 N3 29.90S GREENVILLE N/A 62 43 49 N8 29.89F MILLINOCKET SUNNY 66 39 37 VRB5 29.89F HOULTON SUNNY 67 42 40 N10 29.86F PRESQUE ISLE SUNNY 64 41 42 N13 29.88S FRENCHVILLE PTSUNNY 60 40 47 NW13 29.87S CARIBOU SUNNY 65 41 41 N10 29.86F $$ NHZ002-005-008-009-011-012-014-231600- NEW HAMPSHIRE CITY SKY/WX TMP DP RH WIND PRES REMARKS PORTSMOUTH MOSUNNY 69 47 44 E7 29.89S ROCHESTER MOSUNNY 69 45 41 E9 29.90R NASHUA SUNNY 72 51 47 SE9G17 29.90S MANCHESTER MOSUNNY 71 47 42 E10 29.88S CONCORD SUNNY 72 49 44 E9 29.89S LACONIA MOSUNNY 68 50 52 E10 29.91S PLYMOUTH FAIR 69 51 52 NE7 29.89S BERLIN MOSUNNY 69 44 40 S3 29.90S WHITEFIELD SUNNY 69 51 52 CALM 29.90R JAFFREY SUNNY 70 50 49 VRB5 29.91R KEENE SUNNY 72 53 51 NE6 29.88S LEBANON MOSUNNY 75 57 53 CALM 29.87S MT WASHINGTON FOG 48 48 100 NW16 N/A VSB 3/16 $$ VTZ005-007-008-231600- VERMONT CITY SKY/WX TMP DP RH WIND PRES REMARKS ST JOHNSBURY N/A 69 53 56 MISG 29.88S MONTPELIER PTSUNNY 63 55 75 W3 29.94R BURLINGTON CLOUDY 70 58 65 NW6 29.89R $$ MAZ007-012-024-CTZ003-RIZ002-NYZ038-NYZ072-231600- SOUTHERN NEW ENGLAND AND NY CITY SKY/WX TMP DP RH WIND PRES REMARKS BOSTON PTSUNNY 69 56 62 NE14 29.88R WORCESTER SUNNY 70 50 49 E7 29.89S NANTUCKET CLOUDY 73 65 75 NE3 29.81R PROVIDENCE PTSUNNY 75 53 46 NE16G22 29.85S HARTFORD MOSUNNY 78 56 46 VRB7 29.84S ALBANY CLOUDY 75 61 61 CALM 29.84S NEW YORK CITY PTSUNNY 78 70 76 NE10 29.80R $$ ANZ081-ANZ082-ANZ150-NHZ014-MEZ023>029-231600- COASTAL MARINE OBSERVATIONS STATION/POSITION TIME TEMP WIND PRES WAVE AIR SEA DIR/SP/G HT/PER (UTC) (F) (DEG/KT/KT) (MB) (FT/S) MOUNT DESERT ROC 1500 56 1012.0R MATINICUS ROCK 1400 58 40/ 12/ 13 1011.3R ISLE OF SHOALS 1400 65 60/ 15/ 16 1011.7R JEFFREYS LEDGE 1406 65 N/A 5/ 6 CASHES LEDGE BUO 1450 64 65 1011.4R 3/ 4 GEORGES BANK BUO 1350 63 61 1007.0 2/ 6 $$ .............KEY.............. WCI - WIND CHILL TC - TEMPERATURE IN CELSIUS VSB - VISIBILITY IN MILES HX - HEAT INDEX FAIR- INDICATES FEW OR NO CLOUDS BELOW 12,000 FT, WITH NO SIGNIFICANT WEATHER AND/OR OBSTRUCTIONS TO VISIBILITY.

USA.gov is the U.S. government's official web portal to all federal, state and local government web resources and services.